Regional Weather Roundup
Issued by NWS Goodland, KS

Home | Current Version | Previous Version | Graphics & Text | Print | Product List | Glossary On
Versions: 1 2 3 4 5 6 7 8 9 10 11 12 13 14 15 16 17 18 19 20 21 22 23 24 25 26 27 28 29 30 31 32 33 34 35 36 37 38 39 40 41 42 43 44 45 46 47 48 49 50
000
ASUS43 KGLD 280208
RWRGLD

GOODLAND FORECAST AREA HOURLY WEATHER ROUNDUP
NATIONAL WEATHER SERVICE GOODLAND KS
800 PM MDT WED JUL 27 2016

...OFFICIAL OBSERVATIONS...

CITY           SKY/WX    TMP DP  RH WIND       PRES   REMARKS
GOODLAND KS    CLEAR     77  64  64 E7        30.06R
HILL CITY KS   CLEAR     80  70  71 E6        30.01R
IMPERIAL NEB   PTCLDY    78  59  51 NE9       30.09R
MCCOOK NEB     CLOUDY    79  65  62 E9        30.05R
AKRON CO       CLOUDY    73  61  65 E13G23    30.15R
BURLINGTON CO  CLEAR     77  60  55 E7        30.10R
LIMON CO       CLOUDY    79  51  37 E6        30.18R
$$

...UNOFFICIAL OBSERVATIONS...

CITY           SKY/WX    TMP DP  RH WIND       PRES   REMARKS
COLBY KS       CLEAR     79  66  65 E8        30.07R
LENORA KS        N/A     82  32  16 MISG        N/A
NORTON KS      CLEAR     79  61  53 NE7       30.03R
SHARON SPRINGS   N/A     79  61  54 SE7         N/A
KIT CARSON CO    N/A     79  60  52 CALM        N/A
YUMA CO          N/A     78  66  66 NE8         N/A
$$




USA.gov is the U.S. government's official web portal to all federal, state and local government web resources and services.